Tampa, FL

10:13 AM EDT on July 24, 2016 (GMT -0400)
Tampa International

Weather History for KTPA - April, 2012

Change the Weather History Date:

Saturday, April 14, 2012

  Actual Average Record
Temperature  
Mean Temperature 75 °F 72 °F  
Max Temperature 84 °F 81 °F 90 °F (1945)
Min Temperature 65 °F 63 °F 46 °F (1940)
Degree Days  
Heating Degree Days 0 0  
Month to date heating degree days 0 9  
Since 1 July heating degree days 208 536  
Cooling Degree Days 10 7  
Month to date cooling degree days 142 85  
Year to date cooling degree days 634 324  
Growing Degree Days 24 (Base 50)    
Moisture  
Dew Point 60 °F    
Average Humidity 67    
Maximum Humidity 87    
Minimum Humidity 46    
Precipitation  
Precipitation 0.00 in 0.07 in 2.35 in (1980)
Month to date precipitation 0.25 1.04  
Year to date precipitation 4.19 9.11  
Sea Level Pressure  
Sea Level Pressure 30.18 in    
Wind  
Wind Speed 8 mph (East)    
Max Wind Speed 16 mph    
Max Gust Speed 23 mph    
Visibility 10 miles    
Events      
T = Trace of Precipitation, MM = Missing Value Source: NWS Daily Summary

Daily Weather History Graph

Daily Weather History Graph

Search for Another Location

Airport or City:

Trip Planner

Search our weather history database for the weather conditions in past years. The results will help you decide how hot, cold, wet, or windy it might be!

Date:

Astronomy

Apr. 14, 2012 Rise Set
Actual Time 7:05 AM EDT 7:55 PM EDT
Civil Twilight 6:41 AM EDT 8:19 PM EDT
Nautical Twilight 6:13 AM EDT 8:47 PM EDT
Astronomical Twilight 5:44 AM EDT 9:16 PM EDT
Moon 2:56 AM EDT (4/14) 2:17 PM EDT (4/14)
Length of Visible Light 13h 37m
Length of Day
12h 49m
Last Quarter, 37% of the Moon is Illuminated
Apr 14
Last Quarter
Apr 21
New
Apr 29
First Quarter
May 5
Full
May 12
Last Quarter

Hourly Weather History & Observations

Time (EDT) Temp. Heat Index Dew Point Humidity Pressure Visibility Wind Dir Wind Speed Gust Speed Precip Events Conditions
12:53 AM 71.1 °F - 59.0 °F 66% 30.15 in 10.0 mi ENE 6.9 mph - N/A   Scattered Clouds
1:53 AM 70.0 °F - 60.1 °F 71% 30.14 in 10.0 mi NE 6.9 mph - N/A   Partly Cloudy
2:53 AM 69.1 °F - 61.0 °F 75% 30.13 in 10.0 mi Variable 6.9 mph - N/A   Clear
3:53 AM 68.0 °F - 62.1 °F 81% 30.12 in 10.0 mi ENE 5.8 mph - N/A   Clear
4:53 AM 66.9 °F - 62.1 °F 84% 30.13 in 10.0 mi ENE 3.5 mph - N/A   Clear
5:53 AM 66.0 °F - 62.1 °F 87% 30.14 in 10.0 mi ENE 5.8 mph - N/A   Clear
6:53 AM 66.0 °F - 62.1 °F 87% 30.17 in 10.0 mi ENE 5.8 mph - N/A   Partly Cloudy
7:53 AM 66.9 °F - 62.1 °F 84% 30.19 in 10.0 mi ENE 6.9 mph - N/A   Partly Cloudy
8:53 AM 70.0 °F - 62.1 °F 76% 30.20 in 10.0 mi East 9.2 mph - N/A   Partly Cloudy
9:53 AM 73.9 °F - 63.0 °F 68% 30.22 in 10.0 mi East 10.4 mph 18.4 mph N/A   Scattered Clouds
10:02 AM 75.2 °F - 62.6 °F 65% 30.22 in 10.0 mi East 6.9 mph 18.4 mph N/A   Mostly Cloudy
10:53 AM 77.0 °F - 62.1 °F 60% 30.23 in 10.0 mi Variable 6.9 mph 17.3 mph N/A   Mostly Cloudy
11:48 AM 78.8 °F - 60.8 °F 54% 30.24 in 10.0 mi ESE 10.4 mph 19.6 mph N/A   Mostly Cloudy
11:53 AM 79.0 °F - 61.0 °F 54% 30.23 in 10.0 mi ESE 12.7 mph 19.6 mph N/A   Mostly Cloudy
12:53 PM 79.0 °F - 61.0 °F 54% 30.22 in 10.0 mi ESE 8.1 mph 19.6 mph N/A   Mostly Cloudy
1:53 PM 81.0 °F 81.6 °F 60.1 °F 49% 30.21 in 10.0 mi ESE 9.2 mph 18.4 mph N/A   Mostly Cloudy
2:53 PM 81.0 °F 81.3 °F 59.0 °F 47% 30.19 in 10.0 mi East 9.2 mph - N/A   Mostly Cloudy
3:53 PM 82.0 °F 82.1 °F 59.0 °F 45% 30.16 in 10.0 mi ESE 8.1 mph 17.3 mph N/A   Scattered Clouds
4:53 PM 82.9 °F 82.8 °F 59.0 °F 44% 30.15 in 10.0 mi East 11.5 mph 18.4 mph N/A   Scattered Clouds
5:53 PM 79.0 °F - 60.1 °F 52% 30.16 in 10.0 mi SE 13.8 mph 21.9 mph N/A   Scattered Clouds
6:53 PM 79.0 °F - 57.0 °F 47% 30.17 in 10.0 mi SSE 10.4 mph 18.4 mph N/A   Mostly Cloudy
7:53 PM 78.1 °F - 57.9 °F 50% 30.18 in 10.0 mi East 8.1 mph 17.3 mph N/A   Mostly Cloudy
8:53 PM 75.9 °F - 59.0 °F 56% 30.19 in 10.0 mi East 8.1 mph - N/A   Clear
9:53 PM 75.0 °F - 59.0 °F 57% 30.22 in 10.0 mi East 5.8 mph - N/A   Scattered Clouds
10:53 PM 73.0 °F - 59.0 °F 61% 30.23 in 10.0 mi East 6.9 mph - N/A   Partly Cloudy
11:53 PM 72.0 °F - 60.1 °F 66% 30.22 in 10.0 mi East 4.6 mph - N/A   Scattered Clouds